{"data":{"norad_id":61047,"epoch":"2026-09-21T03:46:37.845408Z","epoch_age_seconds":234907,"freshness":"STALE","line1":"1 61047U 24163C   26264.15738247 -.00000114  00000+0  97029-5 0  9999","line2":"2 61047  52.9682 227.8703 0007958  53.5615 306.6112 15.20401208112360","mean_motion":15.20401208,"eccentricity":0.0007958,"inclination_deg":52.9682,"raan_deg":227.8703,"arg_perigee_deg":53.5615,"mean_anomaly_deg":306.6112,"bstar":9.7029e-6,"rev_number":11236,"period_min":94.71184266515,"perigee_km":499.15221186563,"apogee_km":510.10682305482,"semimajor_km":6882.7665174602,"source":"CELESTRAK","updated_at":"2026-09-23T09:00:20.802151Z"}}